Location: Cheching
(60.0667°N, 164.2167°W)
Time: 02:25:02
(UTC+00:00)

UNISAT 6 - Pass Details

Date: 18 January 2021
Orbit: 607 x 687 km, 97.7° (Epoch: 05 March)

Event Time Altitude Azimuth Distance (km) Brightness Sun altitude
Rises 17:09:59 0° 157° (SSE) 2,864 ? -17.3°
Reaches altitude 10° 17:12:08 10° 156° (SSE) 1,968 ? -17.0°
Maximum altitude 17:16:24 78° 71° (ENE) 638 ? -16.5°
Drops below altitude 10° 17:20:47 10° 345° (NNW) 2,013 ? -15.9°
Enters shadow 17:21:37 - 345° (NNW) 2,362 ? -15.8°
